Wind_Speed
23 23 23 21 21 24 22 28 25 30 29 24 22 19 19 21 20 14 13 13 12 10 9 8 11 12 11 7 6 10 15 15 20 22 17 13 15 11 7 4 3 2 6
22 19 18 20 19 21 23 23 26 22 19 24 20 17 17 18 16 17 16 14 13 14 13 10 11 10 6 2 4 5 13 16 18 18 11 8 5 5 2 4 3 3 2
18 21 21 23 21 21 23 24 23 21 23 18 20 18 16 16 14 15 13 13 13 13 11 10 9 9 8 9 8 7 8 9 8 13 7 6 3 3 3 3 5 5 6
20 17 21 21 20 20 23 22 21 20 22 21 20 18 18 15 14 16 17 17 16 15 14 15 16 13 10 6 6 6 5 4 3 7 4 5 4 7 7 5 3 5 2
20 20 20 18 21 21 20 21 22 22 21 22 21 20 15 15 14 13 17 20 19 14 14 13 14 17 16 13 10 10 12 11 8 8 6 6 9 7 7 6 5 4 8
20 18 16 18 20 20 21 22 22 23 23 22 21 21 21 17 11 13 14 13 14 13 14 14 14 15 20 22 21 16 13 11 12 11 11 9 8 8 8 5 5 9 4
18 20 18 20 20 21 20 20 22 22 23 23 25 24 24 19 19 20 19 16 15 15 16 15 13 12 13 10 13 15 14 13 12 14 10 8 9 5 8 8 8 6 6
18 18 17 18 20 19 21 21 20 22 21 22 25 25 22 23 21 20 19 18 19 17 17 17 14 13 13 13 14 12 11 9 10 8 7 6 6 9 11 8 8 6 6
17 16 17 19 19 20 22 22 23 22 22 21 22 23 23 21 22 19 18 14 16 16 16 18 14 13 14 12 13 10 12 11 12 11 10 8 9 9 9 8 5 2 4
16 14 16 17 18 23 24 26 26 27 25 23 21 19 20 19 20 17 16 15 14 13 12 13 16 16 14 12 12 10 9 10 9 9 9 11 9 7 7 5 4 5 5
12 13 13 13 17 18 19 20 21 25 28 24 25 24 21 22 22 21 18 16 18 17 16 17 17 16 15 15 14 12 10 10 8 9 7 7 7 4 5 4 4 3 4
13 11 11 14 16 22 20 21 22 28 25 26 25 23 25 23 24 25 21 23 19 18 18 17 16 15 16 15 15 14 11 10 8 8 8 8 7 5 5 7 8 7 6
13 12 10 11 16 16 18 20 24 26 27 27 28 27 25 21 19 21 21 24 23 14 17 16 18 18 15 14 15 16 15 11 8 7 8 7 4 5 6 8 9 7 10
12 8 10 10 12 16 17 16 18 24 27 26 25 27 25 26 27 23 21 20 21 21 20 17 19 18 24 15 14 16 15 12 11 8 7 7 7 7 6 6 6 8 11
10 8 9 8 10 11 12 16 15 23 24 26 26 25 28 28 27 25 25 25 23 21 26 26 22 20 18 19 23 20 13 15 14 11 10 9 8 8 8 8 9 11 13
9 7 8 7 7 9 10 9 20 20 22 21 22 23 17 19 21 21 22 28 26 24 19 27 30 27 19 20 18 21 20 17 19 14 10 10 9 9 9 10 10 11 12
7 6 8 7 5 7 7 7 9 13 15 18 20 22 23 22 17 21 24 24 24 20 21 24 22 20 25 20 17 17 17 18 15 16 18 14 10 9 10 10 10 10 9
6 10 7 7 5 6 7 8 8 11 10 13 12 14 19 21 22 21 21 20 22 23 23 25 21 19 18 19 17 15 12 14 16 15 11 14 15 12 10 10 9 9 9
4 3 7 7 7 8 7 7 9 9 13 12 14 15 16 17 19 19 22 22 22 22 21 21 23 18 19 18 18 14 14 13 12 14 11 8 9 11 9 8 8 8 10
7 9 10 7 7 9 8 8 9 9 10 12 12 14 12 13 17 17 19 20 20 22 20 20 20 19 19 19 17 13 14 12 10 9 7 10 7 9 5 6 3 4 4
2 5 7 6 6 5 7 8 9 10 11 13 13 12 14 15 17 17 19 20 22 22 19 18 19 17 17 17 17 14 14 13 10 9 8 6 5 5 10 3 2 3 4
1 2 3 4 4 6 6 8 10 9 10 9 12 13 17 13 14 16 16 18 17 18 17 17 15 18 17 17 17 14 13 10 11 8 9 7 5 8 9 4 3 6 7
1 1 2 3 4 5 5 5 6 9 9 9 10 11 14 16 17 18 18 17 13 15 16 16 14 16 18 15 16 16 12 11 9 9 8 5 6 6 8 7 6 8 9
2 1 2 3 4 5 5 6 6 7 8 10 12 12 13 14 14 14 13 14 13 15 14 14 15 14 16 16 14 15 13 11 10 7 6 2 3 3 3 7 7 6 7
2 3 3 5 4 5 6 6 7 8 9 9 11 12 13 12 11 11 14 13 13 13 12 11 12 13 13 14 12 12 11 9 10 8 6 3 2 6 4 5 6 5 5
2 4 4 5 5 6 7 7 8 9 10 9 10 10 10 11 11 12 13 13 13 11 11 11 12 11 10 13 11 10 9 7 8 7 4 3 1 3 7 4 3 3 1
Wind_Direction
348 350 353 356 359 360 4 4 4 354 358 3 12 11 20 22 23 19 41 42 43 45 50 49 57 53 41 57 108 127 85 132 134 132 143 170 154 143 136 145 108 98 303
352 1 359 351 352 359 10 356 0 5 0 359 5 6 15 24 24 35 38 47 62 61 52 40 20 11 7 96 108 89 91 91 121 126 114 118 120 100 103 90 167 168 225
6 357 356 358 1 4 7 3 6 0 358 14 15 17 24 25 30 33 31 32 31 28 30 21 18 20 28 49 52 65 120 150 100 73 98 115 95 73 66 63 60 44 49
2 358 1 3 7 3 5 8 2 5 7 18 22 18 16 25 36 42 38 28 28 26 33 39 22 22 17 9 11 39 42 34 60 113 113 64 80 40 80 71 40 36 67
5 6 4 7 2 8 6 2 1 10 22 20 19 17 20 9 17 26 31 19 23 28 35 35 35 39 41 43 48 55 75 81 91 98 95 105 76 65 55 46 66 63 60
6 6 357 0 8 18 7 10 15 23 34 22 15 12 13 13 25 43 41 33 42 46 48 44 53 51 48 52 54 57 68 81 70 84 72 74 79 71 66 55 108 110 87
9 359 15 17 18 10 16 18 24 32 30 22 27 24 16 37 50 56 50 39 52 60 58 60 46 51 56 40 31 42 57 67 91 82 84 89 78 83 61 76 99 96 86
13 19 23 19 20 26 25 26 31 30 24 17 28 28 40 46 52 54 54 45 52 54 59 49 42 43 48 55 40 45 50 48 67 81 116 125 113 99 87 76 91 76 84
15 29 33 32 30 32 34 40 40 37 32 31 32 38 41 37 42 48 55 48 44 46 38 37 34 31 34 46 41 39 49 58 55 63 89 115 108 102 85 59 29 23 69
31 31 39 38 33 36 35 41 41 41 40 43 40 42 36 36 41 38 49 39 40 34 26 27 36 41 45 45 52 58 57 61 64 61 77 80 79 61 60 46 38 21 26
37 29 45 38 28 25 29 30 32 35 30 43 47 49 47 43 41 42 44 44 46 42 34 34 36 40 41 37 46 50 52 63 57 85 98 90 93 87 44 48 61 76 53
22 35 35 38 31 37 34 37 40 34 44 49 48 53 48 47 42 43 45 46 46 45 44 41 35 34 35 34 37 44 58 62 56 68 78 89 91 77 58 60 62 53 29
25 39 35 35 36 33 35 39 40 47 50 51 51 49 43 42 31 37 29 29 32 29 40 51 51 42 36 30 39 49 42 58 64 57 61 76 84 62 54 62 65 37 36
25 32 36 42 37 38 37 37 35 44 40 43 45 44 46 51 50 46 44 48 43 47 44 48 51 41 41 48 44 45 42 44 58 59 65 70 65 69 66 70 52 51 62
32 31 38 36 40 29 44 42 39 39 45 48 49 56 57 52 48 45 41 39 33 39 44 45 46 51 48 41 43 48 48 36 53 59 60 68 67 62 63 63 74 82 80
35 39 25 38 43 21 46 43 51 50 41 43 49 45 40 46 43 40 38 39 33 34 35 35 38 38 38 40 46 37 48 47 49 58 59 63 64 77 73 75 83 91 95
36 37 21 28 41 32 36 19 19 29 54 50 51 43 42 39 43 42 32 35 30 33 27 27 27 25 31 32 42 47 41 40 49 42 52 56 61 73 80 81 87 93 94
31 32 28 31 27 21 14 25 32 28 39 23 28 25 42 35 31 34 32 30 25 24 32 29 23 21 24 26 35 28 40 39 39 45 49 46 51 60 75 86 91 92 88
56 27 47 32 29 32 18 17 10 24 24 25 34 33 24 27 26 20 26 26 23 22 19 26 24 26 21 25 33 46 30 25 21 30 48 70 42 32 45 64 77 92 97
46 74 59 44 35 25 22 21 13 4 21 23 32 17 15 18 25 21 17 12 20 14 24 19 22 24 19 21 26 32 32 30 32 28 18 31 64 53 43 6 57 87 101
33 53 60 51 49 47 28 20 16 19 18 8 20 10 15 15 12 12 8 7 9 9 18 22 19 19 19 16 20 27 35 27 30 16 44 45 35 23 8 47 44 95 95
358 16 29 36 37 32 36 29 14 24 17 13 3 3 14 8 5 0 359 2 359 5 11 18 24 16 15 10 20 25 33 30 19 29 32 30 37 21 32 71 103 85 93
344 306 5 358 6 7 10 18 24 10 6 351 354 358 355 353 351 351 354 354 7 5 9 16 11 21 18 5 14 17 19 17 10 8 25 36 44 34 43 84 77 96 100
328 345 331 341 326 342 342 345 343 353 355 347 349 345 342 344 343 347 351 347 6 6 14 22 9 13 13 357 3 11 13 16 8 7 19 21 56 72 80 72 136 129 115
278 295 327 305 338 328 334 336 342 336 337 338 337 340 342 348 351 359 346 1 4 359 2 11 355 357 10 354 353 3 7 11 14 18 12 136 104 84 95 115 121 112 112
297 308 319 308 312 313 320 320 323 328 331 335 342 354 360 1 359 345 353 350 355 355 349 350 340 349 358 349 354 353 1 11 12 18 46 74 153 97 156 149 153 132 105
Height
1519 1514 1509 1506 1501 1495 1491 1485 1480 1474 1469 1463 1458 1454 1450 1445 1441 1437 1433 1431 1429 1428 1426 1425 1424 1423 1421 1420 1418 1417 1414 1417 1427 1428 1432 1437 1440 1438 1438 1439 1442 1444 1446
1520 1516 1511 1507 1502 1496 1492 1488 1483 1477 1471 1466 1460 1456 1452 1448 1444 1440 1437 1434 1432 1430 1429 1428 1426 1425 1422 1419 1422 1421 1421 1424 1427 1430 1432 1438 1440 1437 1436 1439 1442 1444 1444
1521 1517 1511 1507 1501 1497 1493 1489 1484 1478 1473 1467 1463 1458 1454 1450 1447 1444 1441 1438 1436 1434 1432 1429 1427 1427 1426 1425 1426 1425 1427 1429 1430 1433 1437 1438 1440 1437 1438 1438 1439 1440 1442
1522 1517 1511 1507 1503 1499 1495 1491 1485 1480 1475 1470 1465 1462 1458 1453 1449 1447 1445 1442 1439 1436 1434 1432 1429 1428 1426 1426 1426 1426 1429 1430 1432 1432 1437 1436 1438 1436 1436 1437 1439 1440 1441
1523 1518 1512 1509 1505 1501 1497 1492 1487 1482 1477 1473 1469 1465 1461 1457 1452 1450 1447 1446 1444 1443 1440 1437 1433 1431 1429 1427 1427 1426 1427 1429 1435 1433 1436 1437 1436 1437 1436 1437 1440 1442 1442
1525 1519 1514 1511 1507 1503 1499 1494 1490 1485 1481 1478 1473 1467 1462 1458 1454 1453 1450 1449 1447 1446 1444 1442 1440 1438 1436 1433 1431 1430 1429 1430 1431 1432 1433 1436 1439 1438 1439 1440 1442 1445 1445
1526 1520 1516 1513 1510 1506 1502 1498 1493 1489 1485 1481 1476 1471 1466 1462 1458 1456 1453 1453 1450 1449 1448 1446 1444 1441 1439 1439 1438 1436 1434 1434 1433 1431 1436 1439 1440 1440 1442 1444 1445 1447 1447
1528 1524 1521 1517 1513 1510 1505 1501 1497 1493 1488 1485 1480 1476 1472 1468 1464 1460 1458 1458 1456 1454 1452 1450 1449 1448 1446 1443 1440 1440 1438 1437 1435 1436 1439 1440 1442 1443 1444 1446 1447 1447 1448
1530 1527 1524 1521 1517 1513 1508 1504 1500 1496 1492 1488 1485 1481 1477 1474 1470 1466 1463 1463 1461 1460 1457 1455 1453 1451 1448 1446 1444 1444 1443 1442 1442 1442 1442 1444 1446 1447 1447 1447 1449 1449 1448
1534 1531 1528 1526 1521 1517 1513 1509 1506 1501 1497 1492 1489 1485 1482 1479 1475 1471 1468 1467 1465 1463 1462 1459 1457 1454 1452 1450 1449 1448 1446 1446 1446 1447 1447 1448 1448 1449 1449 1450 1450 1448 1448
1538 1535 1532 1529 1526 1522 1518 1514 1511 1506 1502 1497 1493 1489 1486 1483 1480 1476 1473 1471 1469 1468 1466 1463 1461 1458 1457 1455 1452 1450 1450 1450 1450 1449 1449 1449 1450 1451 1452 1450 1449 1449 1449
1540 1537 1535 1532 1530 1526 1522 1519 1515 1511 1506 1502 1498 1494 1491 1488 1485 1482 1479 1477 1475 1473 1471 1469 1466 1463 1460 1458 1456 1454 1453 1453 1452 1451 1451 1452 1452 1453 1452 1451 1451 1450 1449
1542 1540 1538 1536 1533 1531 1528 1524 1520 1516 1512 1508 1504 1500 1497 1494 1491 1488 1486 1483 1479 1476 1474 1472 1470 1467 1464 1462 1460 1458 1457 1455 1455 1454 1454 1454 1454 1454 1453 1453 1453 1451 1450
1544 1543 1541 1540 1537 1535 1532 1529 1526 1521 1517 1513 1509 1506 1502 1499 1496 1493 1491 1488 1485 1481 1479 1476 1474 1471 1469 1466 1464 1462 1460 1459 1457 1456 1456 1456 1455 1455 1455 1454 1454 1453 1451
1547 1546 1544 1542 1540 1538 1536 1533 1530 1526 1522 1519 1515 1512 1509 1506 1503 1501 1497 1493 1490 1487 1484 1480 1477 1475 1473 1470 1467 1465 1463 1462 1460 1459 1459 1458 1458 1458 1456 1456 1455 1454 1454
1548 1548 1546 1544 1543 1540 1538 1536 1533 1530 1527 1524 1521 1518 1516 1512 1509 1506 1502 1499 1496 1493 1490 1485 1482 1478 1476 1474 1472 1469 1468 1466 1464 1462 1461 1460 1460 1459 1458 1458 1458 1458 1458
1551 1549 1548 1546 1545 1543 1541 1539 1536 1533 1531 1529 1526 1523 1520 1517 1514 1510 1507 1503 1500 1496 1493 1490 1487 1484 1481 1478 1475 1473 1471 1470 1468 1467 1465 1463 1462 1461 1461 1461 1461 1461 1461
1552 1551 1550 1548 1547 1546 1544 1542 1539 1537 1535 1532 1529 1526 1524 1520 1518 1514 1510 1508 1503 1499 1496 1493 1490 1488 1485 1482 1479 1476 1475 1473 1472 1470 1469 1468 1467 1466 1465 1464 1464 1464 1464
1554 1552 1551 1550 1549 1547 1546 1544 1541 1540 1537 1535 1533 1530 1526 1523 1520 1517 1514 1510 1507 1503 1500 1497 1494 1491 1488 1486 1482 1479 1478 1476 1474 1474 1472 1471 1471 1470 1469 1468 1468 1467 1467
1555 1553 1551 1551 1550 1549 1548 1546 1544 1541 1539 1537 1535 1532 1528 1526 1522 1520 1517 1513 1510 1507 1503 1500 1497 1494 1491 1488 1485 1483 1481 1479 1477 1475 1475 1474 1473 1473 1472 1471 1470 1470 1470
1557 1557 1554 1553 1551 1550 1549 1548 1546 1543 1541 1538 1536 1534 1531 1529 1526 1523 1520 1516 1512 1509 1506 1503 1500 1497 1494 1491 1487 1484 1482 1480 1479 1477 1476 1475 1475 1475 1473 1472 1472 1472 1471
1558 1557 1556 1555 1553 1552 1549 1548 1547 1546 1544 1542 1539 1536 1533 1531 1527 1524 1521 1518 1515 1511 1508 1505 1502 1499 1496 1493 1490 1487 1485 1483 1481 1479 1478 1477 1477 1476 1475 1474 1474 1474 1473
1559 1557 1557 1556 1554 1553 1552 1549 1548 1546 1544 1542 1539 1537 1534 1531 1529 1526 1523 1519 1516 1513 1510 1507 1505 1501 1499 1495 1492 1489 1487 1484 1483 1481 1479 1478 1477 1478 1477 1477 1477 1476 1476
1559 1557 1557 1556 1556 1554 1552 1551 1549 1546 1544 1542 1540 1538 1535 1532 1530 1526 1523 1519 1516 1513 1511 1508 1506 1504 1501 1497 1494 1491 1488 1486 1484 1482 1481 1479 1479 1479 1480 1479 1480 1481 1481
1559 1558 1557 1556 1555 1553 1552 1550 1549 1547 1544 1542 1540 1537 1534 1532 1529 1526 1523 1520 1517 1514 1512 1509 1507 1504 1501 1498 1494 1492 1489 1487 1485 1483 1482 1481 1480 1481 1482 1482 1483 1483 1483
1559 1558 1557 1556 1554 1553 1551 1550 1548 1546 1543 1541 1539 1536 1534 1532 1530 1526 1523 1520 1517 1514 1512 1509 1506 1504 1501 1498 1494 1492 1490 1487 1486 1484 1483 1483 1482 1481 1483 1483 1484 1484 1483